Erie, PA

12:09 AM EST on February 12, 2016 (GMT -0500)
Erie International

Weather History for KERI - March, 2014

Change the Weather History Date:

Saturday, March 22, 2014

  Actual Average Record
Temperature  
Mean Temperature 41 °F 38 °F  
Max Temperature 51 °F 46 °F 82 °F (1938)
Min Temperature 30 °F 29 °F 0 °F (1885)
Degree Days  
Heating Degree Days 24 27  
Month to date heating degree days 821 682  
Since 1 July heating degree days 5642 5047  
Cooling Degree Days 0 0  
Month to date cooling degree days 0 0  
Year to date cooling degree days 0 0  
Moisture  
Dew Point 29 °F    
Average Humidity 64    
Maximum Humidity 85    
Minimum Humidity 42    
Precipitation  
Precipitation 0.02 in 0.10 in 0.51 in (1950)
Month to date precipitation 1.74 2.03  
Year to date precipitation 7.65 7.37  
Snow  
Snow T in 0.40 in - ()
Month to date snowfall 10.3 10.8  
Since 1 July snowfall 129.9 94.8  
Snow Depth 0.00 in    
Sea Level Pressure  
Sea Level Pressure 29.94 in    
Wind  
Wind Speed 10 mph (WSW)    
Max Wind Speed 32 mph    
Max Gust Speed 44 mph    
Visibility 9 miles    
Events Rain    
T = Trace of Precipitation, MM = Missing Value Source: NWS Daily Summary

Daily Weather History Graph

Daily Weather History Graph

Search for Another Location

Airport or City:

Trip Planner

Search our weather history database for the weather conditions in past years. The results will help you decide how hot, cold, wet, or windy it might be!

Date:

Astronomy

Mar. 22, 2014 Rise Set
Actual Time 7:20 AM EDT 7:35 PM EDT
Civil Twilight 6:52 AM EDT 8:03 PM EDT
Nautical Twilight 6:19 AM EDT 8:35 PM EDT
Astronomical Twilight 5:46 AM EDT 9:09 PM EDT
Moon 12:57 AM EDT (3/22) 10:57 AM EDT (3/22)
Length of Visible Light 13h 10m
Length of Day
12h 14m
Waning Gibbous, 65% of the Moon is Illuminated
Mar 22
Waning Gibbous
Mar 23
Last Quarter
Mar 30
New
Apr 7
First Quarter
Apr 15
Full

Hourly Weather History & Observations

Time (EDT) Temp. Windchill Dew Point Humidity Pressure Visibility Wind Dir Wind Speed Gust Speed Precip Events Conditions
12:51 AM 43.0 °F 33.1 °F 27.0 °F 53% 29.74 in 10.0 mi SSE 26.5 mph 35.7 mph N/A   Overcast
1:51 AM 45.0 °F 36.9 °F 28.0 °F 52% 29.69 in 10.0 mi SSE 20.7 mph 31.1 mph N/A   Overcast
2:51 AM 46.9 °F - 28.0 °F 48% 29.64 in 10.0 mi SSE 21.9 mph 28.8 mph N/A   Overcast
3:51 AM 50.0 °F - 28.0 °F 43% 29.61 in 10.0 mi South 20.7 mph 27.6 mph N/A   Mostly Cloudy
4:40 AM 48.2 °F - 30.2 °F 50% 29.64 in 10.0 mi WSW 18.4 mph 43.7 mph N/A   Overcast
4:51 AM 46.0 °F 38.3 °F 32.0 °F 58% 29.68 in 10.0 mi WSW 20.7 mph 34.5 mph N/A   Overcast
5:51 AM 39.9 °F 33.4 °F 36.0 °F 86% 29.70 in 8.0 mi SW 10.4 mph - 0.02 in Rain Light Rain
6:51 AM 43.0 °F 36.0 °F 37.0 °F 80% 29.73 in 10.0 mi WSW 13.8 mph 24.2 mph 0.00 in   Overcast
7:33 AM 39.2 °F 29.8 °F 35.6 °F 87% 29.77 in 10.0 mi West 18.4 mph 28.8 mph N/A   Overcast
7:51 AM 37.9 °F 28.2 °F 33.1 °F 83% 29.81 in 8.0 mi West 18.4 mph 26.5 mph N/A   Overcast
8:23 AM 35.6 °F 25.9 °F 32.0 °F 87% 29.83 in 5.0 mi West 16.1 mph 25.3 mph N/A   Overcast
8:51 AM 36.0 °F 27.5 °F 30.9 °F 82% 29.88 in 6.0 mi West 12.7 mph 21.9 mph N/A   Haze
8:58 AM 35.6 °F 26.6 °F 30.2 °F 81% 29.86 in 6.0 mi West 13.8 mph - N/A   Haze
9:34 AM 35.6 °F 27.5 °F 30.2 °F 81% 29.90 in 7.0 mi West 11.5 mph 20.7 mph N/A   Overcast
9:51 AM 35.1 °F 26.9 °F 28.9 °F 78% 29.94 in 8.0 mi West 11.5 mph 19.6 mph N/A   Overcast
10:51 AM 34.0 °F 26.0 °F 27.0 °F 75% 29.99 in 10.0 mi West 10.4 mph - N/A   Overcast
11:51 AM 34.0 °F 26.0 °F 28.0 °F 79% 30.02 in 10.0 mi West 10.4 mph 21.9 mph N/A   Overcast
12:51 PM 34.0 °F 26.0 °F 27.0 °F 75% 30.04 in 10.0 mi WNW 10.4 mph - N/A   Overcast
1:04 PM 35.6 °F 28.0 °F 26.6 °F 70% 30.02 in 10.0 mi West 10.4 mph - N/A   Overcast
1:51 PM 34.0 °F 27.2 °F 27.0 °F 75% 30.06 in 10.0 mi West 8.1 mph - N/A   Overcast
2:51 PM 34.0 °F 28.0 °F 27.0 °F 75% 30.08 in 10.0 mi West 6.9 mph - N/A   Overcast
3:51 PM 34.0 °F 27.2 °F 27.0 °F 75% 30.09 in 10.0 mi West 8.1 mph - N/A   Overcast
4:00 PM 33.8 °F 27.0 °F 26.6 °F 75% 30.07 in 10.0 mi WSW 8.1 mph - N/A   Overcast
4:51 PM 33.1 °F 26.1 °F 26.1 °F 75% 30.10 in 10.0 mi West 8.1 mph - N/A   Overcast
5:51 PM 34.0 °F 28.0 °F 25.0 °F 70% 30.10 in 10.0 mi WSW 6.9 mph - N/A   Overcast
6:51 PM 34.0 °F 28.0 °F 24.1 °F 67% 30.11 in 10.0 mi WSW 6.9 mph - N/A   Overcast
7:51 PM 34.0 °F 28.8 °F 25.0 °F 70% 30.12 in 10.0 mi SW 5.8 mph - N/A   Overcast
8:51 PM 34.0 °F 29.8 °F 26.1 °F 73% 30.13 in 10.0 mi SW 4.6 mph - N/A   Overcast
9:51 PM 34.0 °F 29.8 °F 26.1 °F 73% 30.13 in 10.0 mi SSW 4.6 mph - N/A   Overcast
10:51 PM 35.1 °F 31.0 °F 26.1 °F 70% 30.13 in 10.0 mi WSW 4.6 mph - N/A   Overcast
11:17 PM 33.8 °F 25.3 °F 26.6 °F 75% 30.11 in 10.0 mi WNW 11.5 mph - N/A   Overcast
11:30 PM 33.8 °F 27.7 °F 28.4 °F 81% 30.12 in 9.0 mi WNW 6.9 mph - N/A   Overcast
11:51 PM 33.1 °F 27.7 °F 28.9 °F 85% 30.14 in 6.0 mi WNW 5.8 mph - N/A   Overcast